TimePDT,TemperatureF,Dew PointF,Humidity,Sea Level PressureIn,VisibilityMPH,Wind Direction,Wind SpeedMPH,Gust SpeedMPH,PrecipitationIn,Events,Conditions,WindDirDegrees,DateUTC
12:56 AM,64.9,55.0,70,29.92,10.0,NNE,10.4,-,N/A,,Clear,20,2013-07-23 07:56:00
1:56 AM,64.0,57.9,80,29.96,10.0,WNW,3.5,-,N/A,,Clear,300,2013-07-23 08:56:00
2:56 AM,64.0,59.0,84,29.93,10.0,SSW,3.5,-,N/A,,Clear,200,2013-07-23 09:56:00
3:56 AM,64.0,55.9,75,29.94,10.0,South,3.5,-,N/A,,Mostly Cloudy,190,2013-07-23 10:56:00
4:56 AM,63.0,57.9,84,29.96,10.0,East,6.9,-,N/A,,Mostly Cloudy,80,2013-07-23 11:56:00
5:56 AM,63.0,57.0,81,29.96,10.0,Calm,Calm,-,N/A,,Partly Cloudy,0,2013-07-23 12:56:00
6:56 AM,63.0,57.0,81,29.97,10.0,SE,3.5,-,N/A,,Clear,140,2013-07-23 13:56:00
7:56 AM,66.0,55.9,70,29.97,10.0,SE,3.5,-,N/A,,Clear,130,2013-07-23 14:56:00
8:56 AM,68.0,55.0,63,30.01,10.0,Calm,Calm,-,N/A,,Clear,0,2013-07-23 15:56:00
9:56 AM,73.0,55.0,53,30.03,10.0,Variable,3.5,-,N/A,,Clear,0,2013-07-23 16:56:00
10:56 AM,78.1,53.1,42,30.00,10.0,South,5.8,-,N/A,,Clear,180,2013-07-23 17:56:00
11:56 AM,81.0,54.0,39,29.97,10.0,SSE,8.1,-,N/A,,Scattered Clouds,160,2013-07-23 18:56:00
12:56 PM,82.9,50.0,32,29.96,10.0,Variable,6.9,18.4,N/A,,Clear,0,2013-07-23 19:56:00
1:56 PM,86.0,50.0,29,29.93,10.0,South,12.7,16.1,N/A,,Clear,170,2013-07-23 20:56:00
2:56 PM,87.1,50.0,28,29.90,10.0,SSE,8.1,17.3,N/A,,Partly Cloudy,150,2013-07-23 21:56:00
3:56 PM,87.1,48.9,27,29.88,10.0,Variable,4.6,20.7,N/A,Thunderstorm,Partly Cloudy,0,2013-07-23 22:56:00
4:12 PM,87.8,46.4,24,30.13,10.0,South,9.2,17.3,N/A,,Clear,170,2013-07-23 23:12:00
4:33 PM,84.2,50.0,30,30.13,10.0,East,27.6,34.5,N/A,,Scattered Clouds,100,2013-07-23 23:33:00
4:56 PM,79.0,51.1,38,29.91,10.0,ESE,28.8,35.7,N/A,,Partly Cloudy,120,2013-07-23 23:56:00
5:51 PM,78.8,53.6,42,30.13,10.0,ESE,20.7,-,0.00,Thunderstorm,Scattered Clouds,110,2013-07-24 00:51:00
5:56 PM,79.0,53.1,40,29.92,10.0,ESE,23.0,-,0.00,Thunderstorm,Mostly Cloudy,110,2013-07-24 00:56:00
6:06 PM,75.2,55.4,50,30.14,10.0,ESE,20.7,27.6,0.00,Rain,Light Rain,120,2013-07-24 01:06:00
6:27 PM,75.2,55.4,50,30.15,10.0,East,19.6,26.5,0.00,Thunderstorm,Scattered Clouds,100,2013-07-24 01:27:00
6:48 PM,73.4,55.4,53,30.15,10.0,East,16.1,-,0.00,,Scattered Clouds,90,2013-07-24 01:48:00
6:56 PM,73.9,55.9,53,29.94,10.0,East,13.8,23.0,0.00,,Scattered Clouds,90,2013-07-24 01:56:00
7:56 PM,75.0,53.1,46,29.96,10.0,NNW,13.8,-,N/A,,Mostly Cloudy,340,2013-07-24 02:56:00
8:39 PM,69.8,55.4,60,30.18,10.0,NNE,21.9,26.5,N/A,Thunderstorm,Scattered Clouds,30,2013-07-24 03:39:00
8:56 PM,70.0,54.0,57,29.99,10.0,NNE,23.0,28.8,N/A,Thunderstorm,Partly Cloudy,20,2013-07-24 03:56:00
9:05 PM,69.8,53.6,56,30.19,10.0,NNE,19.6,28.8,N/A,,Scattered Clouds,20,2013-07-24 04:05:00
9:15 PM,69.8,53.6,56,30.19,10.0,NNE,18.4,24.2,N/A,Thunderstorm,Scattered Clouds,20,2013-07-24 04:15:00
9:26 PM,69.8,53.6,56,30.20,10.0,NNE,15.0,-,N/A,Thunderstorm,Scattered Clouds,30,2013-07-24 04:26:00
9:56 PM,69.1,57.0,65,30.02,10.0,NW,12.7,19.6,N/A,Thunderstorm,Mostly Cloudy,320,2013-07-24 04:56:00
10:06 PM,68.0,55.4,64,30.23,10.0,NNW,9.2,-,N/A,Thunderstorm,Mostly Cloudy,340,2013-07-24 05:06:00
10:56 PM,66.9,59.0,76,30.01,10.0,NNE,9.2,-,0.00,Rain-Thunderstorm,Light Rain,20,2013-07-24 05:56:00
11:07 PM,66.2,60.8,83,30.24,8.0,NNE,6.9,-,0.03,Rain,Rain,20,2013-07-24 06:07:00
11:32 PM,64.4,59.0,83,30.19,10.0,ENE,18.4,-,0.07,Rain-Thunderstorm,Light Rain,60,2013-07-24 06:32:00
11:48 PM,64.4,59.0,83,30.23,10.0,WNW,11.5,16.1,0.07,Rain,Light Rain,290,2013-07-24 06:48:00
11:56 PM,66.0,57.0,73,29.99,10.0,WNW,10.4,-,0.07,,Overcast,290,2013-07-24 06:56:00